Weather History for Novato, CA

Change the Weather History Date:

Monday, August 5, 2013

  Actual Average (KAPC) Record (KAPC)
Temperature  
Mean Temperature 64 °F 65 °F  
Max Temperature 78 °F 78 °F 86 °F (2005)
Min Temperature 51 °F 52 °F 46 °F (2002)
Degree Days  
Heating Degree Days 0    
Month to date heating degree days  
Since 1 June heating degree days  
Since 1 July heating degree days  
Cooling Degree Days 0    
Month to date cooling degree days  
Year to date cooling degree days  
Since 1 June cooling degree days  
Growing Degree Days 14 (Base 50)    
Moisture  
Dew Point 54 °F    
Average Humidity 80    
Maximum Humidity 100    
Minimum Humidity 42    
Precipitation  
Precipitation 0.02 in - 0.01 in (2005)
Month to date precipitation  
Year to date precipitation  
Since 1 July precipitation  
Sea Level Pressure  
Sea Level Pressure 30.00 in    
Wind  
Wind Speed 4 mph (NNW)    
Max Wind Speed 17 mph    
Max Gust Speed 22 mph    
Visibility 10 miles    
Events      
T = Trace of Precipitation, MM = Missing Value Source: NWS Daily Summary

Daily Weather History Graph

Daily Weather History Graph

Search for Another Location

Airport:

Trip Planner

Search our weather history database for the weather conditions in past years. The results will help you decide how hot, cold, wet, or windy it might be!

Date:

Astronomy

Aug. 05, 2013 Rise Set
Actual Time 6:16 AM PDT 8:15 PM PDT
Civil Twilight 5:47 AM PDT 8:43 PM PDT
Nautical Twilight 5:12 AM PDT 9:19 PM PDT
Astronomical Twilight 4:34 AM PDT 9:56 PM PDT
Moon 5:16 AM PDT (8/5) 7:19 PM PDT (8/5)
Length of Visible Light 14h 56m
Length of Day
13h 58m
Waning Crescent, 1% of the Moon is Illuminated
Aug 5
Waning Crescent
Aug 6
New
Aug 14
First Quarter
Aug 20
Full
Aug 28
Last Quarter

Hourly Weather History & Observations

Time (PDT) Temp. Dew Point Humidity Pressure Visibility Wind Dir Wind Speed Gust Speed Precip Events Conditions
12:15 AM 55.4 °F 55.4 °F 100% 30.02 in 10.0 mi Calm Calm - N/A   Overcast
12:35 AM 55.4 °F 55.4 °F 100% 30.02 in 10.0 mi South 3.5 mph - 0.02 in   Overcast
12:55 AM 55.4 °F 55.4 °F 100% 30.02 in 10.0 mi Calm Calm - 0.02 in   Overcast
1:15 AM 55.4 °F 55.4 °F 100% 30.02 in 10.0 mi West 3.5 mph - N/A   Overcast
1:35 AM 55.4 °F 55.4 °F 100% 30.02 in 10.0 mi WNW 3.5 mph - N/A   Overcast
1:55 AM 55.4 °F 55.4 °F 100% 30.01 in 10.0 mi NNW 4.6 mph - N/A   Overcast
2:15 AM 55.4 °F 55.4 °F 100% 30.01 in 10.0 mi West 6.9 mph - N/A   Overcast
2:35 AM 55.4 °F 55.4 °F 100% 30.01 in 10.0 mi WSW 6.9 mph - N/A   Overcast
2:55 AM 53.6 °F 53.6 °F 100% 30.01 in 10.0 mi Calm Calm - N/A   Overcast
3:15 AM 53.6 °F 53.6 °F 100% 30.01 in 10.0 mi WSW 3.5 mph - N/A   Overcast
3:35 AM 53.6 °F 53.6 °F 100% 30.01 in 10.0 mi Calm Calm - N/A   Overcast
3:55 AM 53.6 °F 53.6 °F 100% 30.01 in 10.0 mi North 4.6 mph - N/A   Overcast
4:15 AM 53.6 °F 53.6 °F 100% 30.01 in 10.0 mi NNW 3.5 mph - N/A   Overcast
4:35 AM 53.6 °F 53.6 °F 100% 30.01 in 10.0 mi Calm Calm - N/A   Overcast
4:55 AM 53.6 °F 53.6 °F 100% 30.01 in 10.0 mi North 5.8 mph - N/A   Overcast
5:15 AM 53.6 °F 53.6 °F 100% 30.01 in 10.0 mi Calm Calm - N/A   Overcast
5:35 AM 53.6 °F 53.6 °F 100% 30.01 in 10.0 mi Calm Calm - N/A   Overcast
5:55 AM 53.6 °F 53.6 °F 100% 30.02 in 10.0 mi Calm Calm - N/A   Overcast
6:15 AM 53.6 °F 53.6 °F 100% 30.02 in 10.0 mi Calm Calm - N/A   Overcast
6:35 AM 53.6 °F 53.6 °F 100% 30.02 in 10.0 mi Calm Calm - N/A   Overcast
6:55 AM 55.4 °F 53.6 °F 94% 30.02 in 10.0 mi Calm Calm - N/A   Overcast
7:15 AM 55.4 °F 53.6 °F 94% 30.03 in 10.0 mi SW 3.5 mph - N/A   Overcast
7:35 AM 55.4 °F 53.6 °F 94% 30.03 in 10.0 mi WSW 3.5 mph - N/A   Overcast
7:55 AM 55.4 °F 53.6 °F 94% 30.03 in 10.0 mi Calm Calm - N/A   Overcast
8:15 AM 55.4 °F 53.6 °F 94% 30.03 in 10.0 mi Calm Calm - N/A   Overcast
8:35 AM 55.4 °F 53.6 °F 94% 30.03 in 10.0 mi North 3.5 mph - N/A   Overcast
8:55 AM 55.4 °F 53.6 °F 94% 30.04 in 10.0 mi SW 5.8 mph - N/A   Overcast
9:15 AM 57.2 °F 53.6 °F 88% 30.04 in 10.0 mi SW 4.6 mph - N/A   Overcast
9:35 AM 57.2 °F 53.6 °F 88% 30.04 in 10.0 mi WSW 6.9 mph - N/A   Overcast
9:55 AM 57.2 °F 53.6 °F 88% 30.04 in 10.0 mi SW 6.9 mph - N/A   Overcast
10:15 AM 59.0 °F 53.6 °F 82% 30.04 in 10.0 mi South 8.1 mph - N/A   Overcast
10:35 AM 59.0 °F 53.6 °F 82% 30.05 in 10.0 mi South 6.9 mph - N/A   Overcast
10:55 AM 60.8 °F 53.6 °F 77% 30.04 in 10.0 mi SSW 4.6 mph - N/A   Mostly Cloudy
11:15 AM 62.6 °F 53.6 °F 72% 30.04 in 10.0 mi WSW 4.6 mph - N/A   Scattered Clouds
11:35 AM 64.4 °F 53.6 °F 68% 30.03 in 10.0 mi Calm Calm - N/A   Partly Cloudy
11:55 AM 64.4 °F 53.6 °F 68% 30.03 in 10.0 mi Calm Calm - N/A   Clear
12:15 PM 68.0 °F 53.6 °F 60% 30.02 in 10.0 mi SSE 5.8 mph - N/A   Clear
12:35 PM 68.0 °F 55.4 °F 64% 30.02 in - NNE 3.5 mph - N/A   Clear
12:55 PM 71.6 °F 55.4 °F 57% 30.01 in - ESE 6.9 mph - N/A   Clear
1:15 PM 71.6 °F 55.4 °F 57% 30.00 in - SE 4.6 mph - N/A   Clear
1:35 PM 73.4 °F 55.4 °F 53% 30.00 in - ESE 9.2 mph - N/A   Clear
1:55 PM 73.4 °F 55.4 °F 53% 30.00 in - SSE 5.8 mph - N/A   Clear
2:15 PM 73.4 °F 55.4 °F 53% 29.99 in - ESE 5.8 mph - N/A   Clear
2:35 PM 75.2 °F 55.4 °F 50% 29.98 in - SE 4.6 mph - N/A   Clear
2:55 PM 77.0 °F 55.4 °F 47% 29.97 in - SSE 5.8 mph - N/A   Clear
3:15 PM 77.0 °F 55.4 °F 47% 29.97 in - SE 4.6 mph - N/A   Clear
3:35 PM 77.0 °F 55.4 °F 47% 29.96 in - SE 6.9 mph - N/A   Clear
3:55 PM 77.0 °F 55.4 °F 47% 29.96 in - NNE 4.6 mph - N/A   Clear
4:15 PM 77.0 °F 53.6 °F 44% 29.95 in - NE 10.4 mph - N/A   Clear
4:35 PM 78.8 °F 53.6 °F 42% 29.94 in - North 10.4 mph 16.1 mph N/A   Clear
4:55 PM 77.0 °F 53.6 °F 44% 29.94 in - North 13.8 mph 21.9 mph N/A   Clear
5:15 PM 75.2 °F 53.6 °F 47% 29.94 in - North 15.0 mph 20.7 mph N/A   Clear
5:35 PM 75.2 °F 51.8 °F 44% 29.94 in - North 12.7 mph - N/A   Clear
5:55 PM 75.2 °F 53.6 °F 47% 29.94 in - NNW 12.7 mph - N/A   Clear
6:15 PM 73.4 °F 53.6 °F 50% 29.93 in - WNW 8.1 mph - N/A   Clear
6:35 PM 69.8 °F 51.8 °F 53% 29.94 in - North 12.7 mph - N/A   Clear
6:55 PM 66.2 °F 51.8 °F 60% 29.94 in 10.0 mi North 17.3 mph 21.9 mph N/A   Clear
7:15 PM 62.6 °F 50.0 °F 63% 29.95 in 10.0 mi North 13.8 mph - N/A   Clear
7:35 PM 59.0 °F 50.0 °F 72% 29.95 in 10.0 mi NNW 12.7 mph - N/A   Clear
7:55 PM 57.2 °F 50.0 °F 77% 29.96 in 10.0 mi NNW 8.1 mph - N/A   Clear
8:15 PM 55.4 °F 50.0 °F 82% 29.97 in 10.0 mi North 10.4 mph - N/A   Clear
8:35 PM 53.6 °F 50.0 °F 88% 29.98 in 10.0 mi ENE 5.8 mph - N/A   Clear
8:55 PM 55.4 °F 50.0 °F 82% 29.98 in 10.0 mi East 5.8 mph - N/A   Clear
9:15 PM 53.6 °F 51.8 °F 94% 29.99 in 10.0 mi ESE 3.5 mph - N/A   Clear
9:35 PM 53.6 °F 51.8 °F 94% 29.99 in 10.0 mi Calm Calm - N/A   Clear
9:55 PM 51.8 °F 50.0 °F 94% 30.00 in 10.0 mi Calm Calm - N/A   Clear
10:15 PM 53.6 °F 51.8 °F 94% 30.00 in 10.0 mi Calm Calm - N/A   Clear
10:35 PM 51.8 °F 51.8 °F 100% 30.00 in 10.0 mi Calm Calm - N/A   Mostly Cloudy
10:55 PM 53.6 °F 53.6 °F 100% 30.00 in 10.0 mi ENE 3.5 mph - N/A   Overcast
11:15 PM 53.6 °F 53.6 °F 100% 30.00 in 10.0 mi Calm Calm - N/A   Overcast
11:35 PM 53.6 °F 53.6 °F 100% 30.00 in 10.0 mi Calm Calm - N/A   Overcast
11:55 PM 53.6 °F 53.6 °F 100% 30.00 in 10.0 mi NNE 4.6 mph - N/A   Overcast